loading
DOY 175 | 2024-06-23T12:13:44Z

STARLINK-31900, 59942

Orbit data source: Space-Track

STARLINK-31900, 59942 is a payload satellite owned by SpaceX/Seattle (US) in LEO that was launched on Sat, 01 Jun 2024 UTC via a Falcon 9 launch vehicle from the Air Force Eastern Test Range (AFETR). Payloads include a variety of satellites, spacecraft, and rockets equipped with specific instruments for various scientific and technological missions. These include communications satellites like Starlink; space stations such as the ISS; scientific satellites like the Hubble; Earth observation satellites from companies like Planet Labs, Umbra, and HawkEye 360; GPS; miniature CubeSats for education and research; and military/defense satellites.

Loading next visibility...
Loading greatness...
STARLINK-31900 details
NORAD ID59942
COSPAR ID
2024-106W
Orbit
LEO
Last TLE update6 hours ago
Origin
Flag of USSpaceX/Seattle (US)
ManufacturerSpaceX/Seattle
BusStarlink V2M
MotorUnknown
Mass750 kg wet, ~700 kg dry
Launch date (UTC)
2024-06-01 (3 weeks ago)
Launch vehicle
Falcon 9
Launch site
Air Force Eastern Test Range (AFETR)
Object type
Payload
Rocket body
Debris
Radar Cross SectionLarge (>1 m²)
Predictive object data (real-time)
Latitude-41.8317°
Longitude-145.73764°
Altitude393.468 km
Speed7.675 km/s
Apparent Right ascension12h 54m 47s
Apparent Declination-43° 02' 36"
Sunlit
Object is in full shadow
Predictive observer data (real-time)
Local Sidereal Time23:21:54
Azimuth252.195° W
Elevation-72.384°
Doppler factor1
Orbital elements
Apogee381.736 km
Perigee379.983 km
Semi-major axis6,758.997 km
Eccentricity0.0001297
Inclination42.9995°
RAAN290.3697°
Arg. of periapsis266.1012°
True anomaly355.07562°
Mean anomaly355.0769°
Mean motion3.90589 °/min
BSTAR-0.0204
Period92.17 mins
Definitive object data (Epoch: 2024-06-23T06:00:00.999Z)
Latitude-42.53282°
Longitude-173.49579°
Altitude391.075 km
Speed7.676 km/s
True Right ascension12h 33m 38s
True Declination-42° 21' 08"
Sunlit
Object was in full shadow at TLE epoch
TLE from 6 hours ago
0 STARLINK-31900
1 59942U 24106W   24175.25001157 -.01709376  00000-0 -20400-1 0  9994
2 59942  42.9995 290.3697 0001297 266.1012 355.0769 15.63038984  4660
Epoch: 2024-06-23T06:00Z
No data available

STARLINK-31900 Visibility forecast

Observer location: 39.9160978°, -105.1181434, 0m alt.

STARLINK-31900 is not visible in the next 10 days
Span
Click to sort rows by Start time (UTC) header in descending order
Start Az.
Max El. time (UTC)
Max El. Az.
Max El.
End time (UTC)
End Az.